Regional Weather Roundup
Issued by NWS Bismarck, ND

Home | Current Version | Previous Version | Text Only | Print | Product List | Glossary On
Versions: 1 2 3 4 5 6 7 8 9 10 11 12 13 14 15 16 17 18 19 20 21 22 23 24 25 26 27 28 29 30 31 32 33 34 35 36 37 38 39 40 41 42 43 44 45 46 47 48 49 50
000
ASUS43 KBIS 270520
RWRBIS

NWR BROADCAST TEXT
NATIONAL WEATHER SERVICE BISMARCK ND
1200 AM CDT WED AUG 27 2014

NOTE: "FAIR" INDICATES FEW OR NO CLOUDS BELOW 12,000 FEET WITH NO
SIGNIFICANT WEATHER AND/OR OBSTRUCTIONS TO VISIBILITY.


CITY           SKY/WX    TMP DP  RH WIND       PRES   REMARKS
WILLISTON      CLEAR     52  48  86 CALM      30.12S
MINOT          CLEAR     59  50  72 S10       30.15R
MINOT AFB      CLEAR     52  51  95 S3        30.14S
BISMARCK       CLOUDY    56  54  93 NE3       30.19S
DICKINSON      CLEAR     52  50  93 S8        30.17R
GARRISON         N/A     52  51  97 SW6       30.17R
HETTINGER ARPT CLEAR     52  49  89 SE3       30.20R
JAMESTOWN      PTCLDY    52  51  97 CALM      30.18F FOG
BEACH            N/A     54  54 100 SE9       30.16S
CARRINGTON     FAIR      52  52 100 W7        30.19S
CROSBY         FAIR      55  50  82 S10       30.12S
HARVEY         FAIR      50  50 100 SW7       30.17S
HAZEN          CLOUDY    52  50  93 CALM      30.18F
LINTON         CLOUDY    57  57 100 E6        30.19S
MANDAN         CLOUDY    54  54 100 SE3       30.20S
OAKES            N/A     57  57 100 CALM      30.19S
RUGBY          FAIR      54  50  87 S6        30.16S
STANLEY        FAIR      50  50 100 S6        30.15F
TIOGA          FAIR      52  52 100 S7        30.17S
WATFORD CITY   FAIR      54  50  87 CALM      30.12F
$$

CITY           SKY/WX    TMP DP  RH WIND       PRES   REMARKS
GRAND FORKS    CLEAR     53  52  96 S5        30.15S
GRAND FORKS AF CLEAR     53  53  99 W6        30.16R
DEVILS LAKE    CLEAR     59  52  77 SW10      30.15S
FARGO          MOCLDY    58  57  97 CALM      30.19R
CANDO          FAIR      50  48  93 CALM      30.16S
CAVALIER       FAIR      52  48  87 CALM      30.14S
GRAFTON        FAIR      48  48 100 S5        30.14S
GWINNER        MOCLDY    59  59 100 CALM      30.20F
LANGDON        FAIR      45  43  93 SW3       30.15S
ROLLA          FAIR      46  46 100 SW3       30.17S
WALHALLA         N/A     54  54 100 CALM      30.14S
$$

CITY           SKY/WX    TMP DP  RH WIND       PRES   REMARKS
ABERDEEN       CLOUDY    58  56  93 N5        30.19R
MOBRIDGE       CLOUDY    59  55  87 E7        30.15S
BUFFALO          N/A     54  52  93 NE6       30.12R
RAPID CITY     MOCLDY    63  54  72 CALM      30.17R
GLASGOW        CLEAR     59  51  75 E10       30.07S
SIDNEY         CLEAR     54  50  87 CALM      30.13S
WOLF POINT     CLEAR     57  50  77 CALM      30.09S
GLENDIVE       CLEAR     59  52  77 SE3       30.14S
MILES CITY     CLEAR     61  51  70 SE5       30.11S
BAKER          CLEAR     55  52  89 SE7       30.17R
$$

CITY           SKY/WX    TMP DP  RH WIND       PRES   REMARKS
BILLINGS       CLEAR     68  47  46 S7        30.12S
GREAT FALLS    CLEAR     61  43  51 SW12      30.06S
REGINA         CLEAR     57  50  77 S10       30.05S
ESTEVAN        PTCLDY    54  48  82 SE7       30.12S
$$



USA.gov is the U.S. government's official web portal to all federal, state and local government web resources and services.